Probability
0 0 0 0 0 0 0 0 0 0 0 0 0 0 0 0 0 0 0 0 0 0 0 0 0 0 0 0 0 0 0 0 0 0 0 0 0 0 0 0 0 0 0 0 0 0 0 0 0
0 0 0 0 0 0 0 0 0 0 0 0 0 0 0 0 0 0 0 0 0 0 0 0 0 0 0 0 0 0 0 0 0 0 0 0 0 0 0 0 0 0 0 0 0 0 0 0 0
0 0 0 0 0 0 0 0 0 0 0 0 0 0 0 0 0 0 0 0 0 0 0 0 0 0 0 0 0 0 0 0 0 0 0 0 0 0 0 0 0 0 0 0 0 0 0 0 0
0 0 0 0 0 0 0 0 0 0 0 0 0 0 0 0 0 0 0 0 0 0 0 0 0 0 0 0 0 0 0 0 0 0 0 0 0 0 0 0 0 0 0 0 0 0 0 0 0
0 0 0 0 0 0 0 0 0 0 0 0 0 0 0 0 0 0 0 0 0 0 0 0 0 0 0 0 0 0 0 0 0 0 0 0 0 0 0 0 0 0 0 0 0 0 0 0 0
0 0 0 0 0 0 0 0 0 0 0 0 0 0 0 0 0 0 0 0 0 0 0 0 0 0 0 0 0 0 0 0 0 0 0 0 0 0 0 0 0 0 0 0 0 0 0 0 0
0 0 0 0 0 0 0 0 0 0 0 0 0 0 0 0 0 0 0 0 0 0 0 0 0 0 0 0 0 0 0 0 0 0 0 0 0 0 0 0 0 0 0 0 0 0 0 0 0
0 0 0 0 0 0 0 0 0 0 0 0 0 0 0 0 0 0 0 0 0 0 0 0 0 0 0 0 0 0 0 0 0 0 0 0 0 0 0 0 0 0 0 0 0 0 0 0 0
0 0 0 0 0 0 0 0 0 0 0 0 0 0 0 0 0 0 0 0 0 0 0 0 0 0 0 0 0 0 0 0 0 0 0 0 0 0 0 0 0 0 0 0 0 0 0 0 0
0 0 0 0 0 0 0 0 0 0 0 0 0 0 0 0 0 0 0 0 0 0 0 0 0 0 0 0 0 0 0 0 0 0 0 0 0 0 0 0 0 0 0 0 0 0 0 0 0
0 0 0 0 0 0 0 0 0 0 0 0 0 0 0 0 0 0 0 0 0 0 0 0 0 0 0 0 0 0 0 0 0 0 0 0 0 0 0 0 0 0 0 0 0 0 0 0 0
0 0 0 0 0 0 0 0 0 0 0 0 0 0 0 0 0 0 0 0 0 0 0 0 0 0 0 0 0 0 0 0 0 0 0 0 0 0 0 0 0 0 0 0 0 0 0 0 0
0 0 0 0 0 0 0 0 0 0 0 0 0 0 0 0 0 0 0 0 0 0 0 0 0 0 0 0 0 0 0 0 0 0 0 0 0 0 0 0 0 0 0 0 0 0 0 0 0
0 0 0 0 0 0 0 0 0 0 0 0 0 0 0 0 0 0 0 0 0 0 0 0 0 0 0 0 0 0 0 0 0 0 0 0 0 0 0 0 0 0 0 0 0 0 0 0 0
0 0 0 0 0 0 0 0 0 0 0 0 0 0 0 0 0 0 0 0 0 0 0 0 0 0 0 0 0 0 0 0 0 0 0 0 0 0 0 0 0 0 0 0 0 0 0 0 0
0 0 0 0 0 0 0 0 0 0 0 0 0 0 0 0 0 0 0 0 0 0 0 0 0 0 0 0 0 0 0 0 0 0 0 0 0 0 0 0 0 0 0 0 0 0 0 0 0
0 0 0 0 0 0 0 0 0 0 0 0 0 0 0 0 0 0 0 0 0 0 0 0 0 0 0 0 0 0 0 0 0 0 0 0 0 0 0 0 0 0 0 0 0 0 0 0 0
0 0 0 0 0 0 0 0 0 0 0 0 0 0 0 0 0 0 0 0 0 0 0 0 0 0 0 0 0 0 0 0 0 0 0 0 0 0 0 0 0 0 0 0 0 0 0 0 0
0 0 0 0 0 0 0 0 0 0 0 0 0 0 0 0 0 0 0 0 0 0 0 0 0 0 0 0 0 0 0 0 0 0 0 0 0 0 0 0 0 0 0 0 0 0 0 0 0
0 0 0 0 0 0 0 0 0 0 0 0 0 0 0 0 0 0 0 0 0 0 0 0 0 0 0 0 0 0 0 0 0 0 0 0 0 0 0 0 0 0 0 0 0 0 0 0 0
0 0 0 0 0 0 0 0 0 0 0 0 0 0 0 0 0 0 0 0 0 0 0 0 0 0 0 0 0 0 0 0 0 0 0 0 0 0 0 0 0 0 0 0 0 0 0 0 0
0 0 0 0 0 0 0 0 0 0 0 0 0 0 0 0 0 0 0 0 0 0 0 0 0 0 0 0 0 0 0 0 0 0 0 0 0 0 0 0 0 0 0 0 0 0 0 0 0
0 0 0 0 0 0 0 0 0 0 0 0 0 0 0 0 0 0 0 0 0 0 0 0 0 0 0 0 0 0 0 0 0 0 0 0 0 0 0 0 0 0 0 0 0 0 0 0 0
0 0 0 0 0 0 0 0 0 0 0 0 0 0 0 0 0 0 0 0 0 0 0 0 0 0 0 0 0 0 0 0 0 0 0 0 0 0 0 0 0 0 0 0 0 0 0 0 0
0 0 0 0 0 0 0 0 0 0 0 0 0 0 0 0 0 0 0 0 0 0 0 0 0 0 0 0 0 0 0 0 0 0 0 0 0 0 0 0 0 0 0 0 0 0 0 0 0
0 0 0 0 0 0 0 0 0 0 0 0 0 0 0 0 0 0 0 0 0 0 0 0 0 0 0 0 0 0 0 0 0 0 0 0 0 0 0 0 0 0 0 0 0 0 0 0 0
0 0 0 0 0 0 0 0 0 0 0 0 0 0 0 0 0 0 0 0 0 0 0 0 0 0 0 0 0 0 0 0 0 0 0 0 0 0 0 0 0 0 0 0 0 0 0 0 0
0 0 0 0 0 0 0 0 0 0 0 0 0 0 0 0 0 0 0 0 0 0 0 0 0 0 0 0 0 0 0 0 0 0 0 0 0 0 0 0 0 0 0 0 0 0 0 0 0
0 0 0 0 0 0 0 0 0 0 0 0 0 0 0 0 0 0 0 0 0 0 0 0 0 0 0 0 0 0 0 0 0 0 0 0 0 0 0 0 0 0 0 0 0 0 0 0 0
0 0 0 0 0 0 0 0 0 0 0 0 0 0 0 0 0 0 0 0 0 0 0 0 0 0 0 0 0 0 0 0 0 0 0 0 0 0 0 0 0 0 0 0 0 0 0 0 0
Wind_Speed
2 3 4 4 5 4 4 4 3 5 4 2 3 3 3 1 2 3 5 10 11 14 14 15 13 13 13 13 12 12 11 10 10 10 10 10 10 10 11 11 11 11 12 12 12 12 12 12 12
2 3 4 4 5 5 4 5 6 4 4 5 4 4 4 2 2 5 7 11 12 14 13 13 14 14 13 13 12 12 11 10 10 10 9 9 10 10 10 10 10 11 11 11 11 11 11 11 11
3 3 4 4 4 4 4 5 5 4 5 5 5 3 2 3 4 6 8 13 13 13 12 13 14 14 14 13 13 12 11 10 10 9 9 9 9 10 10 10 10 10 10 10 10 10 10 10 10
4 4 4 5 6 3 2 4 5 7 6 4 4 4 3 2 3 6 12 14 14 14 13 14 14 14 14 13 13 12 12 11 10 9 9 9 9 9 9 9 9 9 9 9 9 9 9 9 9
3 4 6 6 6 4 3 3 6 8 6 6 6 4 5 5 4 8 13 14 14 14 12 14 14 14 14 13 13 12 11 11 10 9 9 9 9 9 8 8 7 7 8 8 8 8 8 8 8
3 4 7 8 7 4 4 5 7 8 6 5 6 5 4 6 7 10 13 13 13 13 12 13 14 13 14 13 13 12 11 11 10 9 9 8 8 8 7 7 6 6 7 7 7 7 7 7 7
4 4 6 6 6 6 5 6 8 8 8 7 5 5 5 9 8 10 13 12 12 13 12 12 13 13 14 13 13 13 12 11 11 10 9 8 8 7 7 6 6 6 6 6 6 6 6 6 6
3 4 6 7 8 6 4 5 5 8 6 3 5 6 4 9 10 11 11 11 12 12 12 12 12 12 12 12 12 12 11 11 10 9 8 8 7 7 6 6 6 6 5 5 5 5 6 6 6
4 7 8 8 7 5 5 6 5 3 4 5 5 3 4 10 13 12 11 11 12 12 12 12 12 11 11 10 11 11 11 10 10 9 9 7 6 6 6 5 5 5 4 4 4 5 5 3 4
6 9 9 5 5 4 5 6 5 6 8 8 7 5 6 10 14 15 16 16 16 16 15 12 13 12 11 9 10 9 9 9 9 8 9 7 5 4 4 7 4 4 4 4 4 3 1 2 1
6 8 6 6 6 4 5 5 5 8 10 10 10 10 11 12 14 16 16 17 17 16 15 14 13 12 12 9 8 6 6 7 8 8 8 6 5 4 4 4 5 4 3 2 2 2 0 1 2
7 7 6 6 5 6 7 6 7 11 11 6 7 6 12 14 16 17 17 16 15 15 16 15 14 13 13 10 8 8 6 6 6 7 9 6 4 4 4 3 3 3 2 1 1 1 1 1 1
11 8 7 7 6 7 7 10 10 13 12 7 5 7 12 14 15 16 15 14 14 15 16 16 16 15 13 11 8 8 8 7 8 7 8 8 5 5 5 4 3 3 2 2 2 2 1 1 2
7 8 8 8 8 7 9 12 11 13 9 9 9 11 12 13 14 14 14 15 16 16 16 16 17 16 14 12 10 9 8 8 8 7 9 9 6 6 5 5 4 3 3 2 2 2 2 2 2
6 8 9 9 8 6 8 14 15 12 9 11 12 12 12 13 13 15 15 16 16 16 16 16 16 16 16 14 13 9 9 9 8 8 9 10 8 7 6 5 5 4 4 4 3 3 2 2 2
7 9 11 8 7 6 9 15 8 6 9 12 12 12 11 12 14 14 14 14 14 14 15 16 13 16 17 14 13 10 9 9 8 8 8 11 10 9 7 6 6 5 4 4 4 3 3 3 3
9 11 12 8 6 6 11 14 8 6 9 12 13 13 12 12 13 13 13 14 14 15 15 16 16 17 16 15 12 11 9 10 8 8 8 10 11 10 8 6 6 6 5 5 4 4 4 4 3
10 11 10 10 5 8 12 16 14 10 11 14 13 12 11 12 12 11 12 13 13 14 15 15 16 16 15 12 10 9 10 9 9 9 9 11 10 11 10 7 8 7 6 6 6 6 5 4 3
8 10 11 9 4 8 14 18 17 13 13 14 13 12 11 11 9 8 9 11 12 13 14 15 16 16 13 11 11 10 10 9 9 9 11 12 11 12 11 8 8 8 7 8 8 6 6 5 3
12 13 13 8 5 8 13 19 17 14 13 12 12 11 10 9 8 7 8 10 12 13 14 15 16 15 15 12 11 10 9 8 9 8 10 12 12 12 10 11 9 9 7 8 8 7 5 4 4
15 16 14 10 5 7 10 15 12 10 10 10 11 11 10 9 8 8 8 10 11 13 14 13 15 15 16 15 10 8 7 6 7 9 9 12 13 13 12 12 10 10 9 8 9 9 9 6 5
15 13 12 10 9 7 5 11 11 9 11 12 12 11 10 9 8 7 8 10 11 11 11 13 13 14 15 15 13 14 11 11 11 9 9 11 13 13 13 12 12 11 9 9 9 9 8 8 6
8 5 8 9 10 11 9 11 11 7 12 12 11 10 10 8 8 7 7 8 9 10 10 11 12 13 14 15 15 15 13 11 9 9 11 11 11 12 13 12 11 11 9 10 10 9 10 8 8
7 5 4 5 7 12 12 12 12 9 11 9 9 9 8 7 7 7 6 7 7 8 9 10 12 13 14 15 15 16 16 13 12 12 10 9 8 9 12 12 11 11 10 11 10 10 11 9 9
10 8 6 7 9 10 7 12 13 9 9 9 8 8 8 7 7 7 7 7 8 9 9 10 12 13 14 15 15 15 15 15 14 12 11 10 8 8 11 11 11 11 10 10 9 9 10 10 10
15 14 10 8 8 7 8 13 11 8 8 9 10 9 8 9 8 8 7 7 7 8 10 11 12 12 13 14 14 14 14 11 10 12 10 10 8 9 10 11 11 11 11 10 9 8 9 8 10
12 13 10 8 6 8 9 9 11 9 10 11 11 10 11 10 9 9 8 7 8 8 10 11 12 12 12 13 13 12 13 12 11 11 10 9 8 7 10 10 11 10 10 10 9 8 9 9 9
8 9 7 9 9 11 11 13 10 9 11 10 11 12 11 10 10 9 8 7 7 7 8 9 10 11 11 12 11 9 11 11 11 10 11 10 9 9 9 10 10 10 10 10 10 9 9 9 9
10 11 9 8 8 9 10 9 7 10 8 9 9 10 10 10 10 8 7 6 6 7 8 9 9 10 10 11 11 11 10 10 10 10 10 9 9 9 9 9 9 10 10 10 9 10 9 10 9
14 14 14 10 10 9 9 8 2 6 5 6 7 7 8 8 8 8 7 6 7 7 8 8 9 9 9 9 10 10 9 9 10 10 9 9 9 8 8 8 9 9 9 9 10 10 9 10 10
Wind_Direction
233 202 206 222 217 211 195 167 181 165 173 150 157 198 215 217 320 42 94 151 145 152 155 159 161 158 151 142 136 130 126 119 113 107 104 100 97 93 88 84 79 76 73 70 68 66 66 64 65
233 209 220 230 231 205 180 183 189 177 130 134 162 186 193 163 62 98 140 153 153 153 158 160 156 158 152 146 142 137 132 127 122 117 113 108 102 98 93 87 83 79 75 72 70 68 68 67 66
200 237 237 219 226 223 163 171 175 148 153 176 169 198 237 121 134 139 143 154 157 156 160 150 158 160 156 152 148 144 138 134 129 124 121 114 108 104 97 91 86 84 80 76 73 71 69 66 65
216 208 224 231 212 215 206 155 160 160 171 206 201 178 166 83 114 131 143 158 160 159 161 153 165 162 159 156 153 149 144 141 134 130 126 120 114 107 101 95 90 86 83 80 77 74 70 67 66
228 230 215 216 219 207 216 198 182 186 179 184 210 194 154 126 121 139 154 162 163 161 162 158 169 166 162 158 157 153 151 146 140 135 131 126 119 112 108 101 94 90 86 83 80 75 72 68 64
204 228 225 216 208 207 204 195 197 210 197 182 207 206 145 132 153 154 160 166 165 162 165 160 168 169 165 162 160 158 157 154 149 144 139 132 126 121 115 110 103 96 91 86 80 76 69 66 63
223 225 234 227 217 214 200 190 209 212 213 198 203 213 154 155 154 158 164 168 167 166 170 169 171 171 169 167 166 165 165 163 158 152 145 138 133 127 120 114 108 101 95 88 80 73 67 62 58
241 222 221 223 223 217 183 190 220 224 226 163 206 225 171 147 148 156 162 169 172 174 178 176 177 175 174 172 169 169 169 168 163 154 144 137 137 134 125 130 113 106 99 88 77 69 63 58 51
227 230 227 218 221 214 183 204 194 223 216 191 213 259 69 130 148 155 163 175 181 185 186 185 182 180 180 176 166 172 172 170 166 160 146 163 169 155 150 112 114 113 103 90 77 68 61 59 78
216 231 230 221 225 223 196 216 200 201 215 211 205 191 147 158 168 174 179 184 188 190 191 189 188 184 182 177 176 183 181 177 188 180 173 182 174 156 144 120 121 117 108 104 79 68 99 279 51
219 234 227 223 226 236 225 223 215 228 232 231 228 205 176 180 189 194 195 193 193 191 190 194 192 188 185 183 186 184 184 184 192 191 184 181 176 167 178 169 163 165 174 169 140 207 293 337 358
226 230 236 231 217 227 237 237 232 233 246 254 245 216 184 194 199 204 204 200 194 193 194 195 194 192 192 190 189 191 189 188 190 192 192 188 188 192 185 197 186 190 191 189 226 282 312 309 310
228 230 232 238 233 238 247 245 253 248 250 251 231 206 206 208 210 211 211 205 199 198 196 196 196 195 195 195 195 197 197 193 192 193 197 197 197 198 192 200 197 204 206 210 229 249 273 288 310
231 233 237 240 236 236 249 255 248 251 247 238 229 225 221 220 218 213 209 208 204 202 199 196 197 198 197 197 198 200 200 196 197 194 199 201 204 203 199 203 203 206 213 227 238 250 266 281 292
230 238 240 233 234 236 250 253 240 248 239 239 234 231 230 228 223 220 214 212 209 205 200 197 198 199 200 202 203 203 201 199 200 199 200 201 206 206 204 209 207 208 210 216 228 235 254 267 270
214 231 238 220 223 218 234 257 241 227 233 244 244 241 235 231 228 224 220 216 213 206 201 197 195 200 202 203 203 203 204 203 202 200 201 203 205 206 206 211 214 208 208 216 223 232 241 247 259
214 230 236 228 208 219 231 259 256 227 243 253 253 251 245 238 230 225 219 215 212 207 201 197 197 201 201 203 205 205 204 205 206 202 203 204 206 205 206 213 215 208 211 217 220 232 245 253 260
218 228 234 237 207 228 243 258 266 256 253 256 257 254 247 240 234 226 217 213 210 207 203 200 198 201 199 200 204 205 208 209 208 206 208 205 205 205 208 212 214 209 210 215 218 225 234 253 262
238 235 242 244 231 246 256 266 270 267 254 253 253 250 245 240 235 223 216 209 203 201 202 200 199 199 195 194 197 200 205 206 208 210 211 208 208 207 209 210 212 210 215 218 221 223 229 234 239
232 241 248 252 234 255 272 273 271 261 252 250 250 246 240 234 224 215 209 201 200 199 199 200 200 197 196 197 197 202 203 207 210 208 213 213 211 209 209 213 212 210 216 219 219 217 228 227 217
229 238 245 251 263 242 281 272 253 242 242 244 242 242 241 235 232 219 206 202 199 199 200 199 199 197 197 197 194 190 193 199 204 209 210 213 212 211 210 213 215 213 214 218 217 213 219 227 218
232 230 239 244 256 258 257 280 263 247 249 239 232 226 228 226 228 222 209 202 201 201 198 200 198 197 196 194 195 195 199 205 209 207 208 210 211 213 213 214 216 216 217 220 219 216 219 228 228
229 207 220 236 249 261 237 258 266 243 246 235 223 217 219 221 222 220 213 207 202 197 193 197 196 196 195 197 199 203 210 215 213 208 210 211 210 212 212 214 215 218 218 221 219 216 217 220 228
169 160 186 221 241 250 235 239 264 234 236 230 217 213 213 216 220 220 211 204 198 192 190 193 194 197 196 198 202 206 211 212 210 209 209 211 209 210 213 213 215 218 219 220 220 218 217 220 226
190 193 210 215 219 239 212 235 251 249 240 241 237 227 219 219 218 213 207 201 195 191 191 192 195 197 196 199 204 208 213 214 215 213 213 211 210 209 211 208 214 217 218 220 219 219 220 221 224
202 208 219 232 237 233 209 236 248 250 247 247 249 248 241 228 217 212 209 205 200 196 194 193 196 197 196 199 204 208 211 213 217 216 216 215 215 213 211 210 214 217 217 217 217 221 223 224 226
195 215 233 258 269 260 233 244 267 249 240 235 233 232 229 220 213 211 207 205 202 199 198 196 195 196 197 200 202 206 208 211 215 216 217 219 220 215 213 211 213 216 216 216 216 221 223 223 226
218 185 185 213 229 240 242 239 240 225 221 217 218 218 218 214 212 212 211 209 209 206 199 198 198 198 198 199 201 204 207 210 212 214 215 216 217 214 213 212 213 215 216 216 218 223 225 224 226
186 192 203 212 233 239 247 239 225 238 237 233 227 223 218 214 213 213 212 211 209 203 197 196 197 197 197 198 199 201 204 205 208 212 214 214 215 214 215 215 215 216 218 218 219 223 223 227 230
211 206 200 210 219 233 256 258 185 244 260 256 249 240 233 226 220 216 214 211 206 201 198 195 195 196 196 194 196 199 199 201 205 209 211 212 214 213 214 216 218 219 220 219 222 225 224 227 230